Weather History for KGUY - September, 2012

Change the Weather History Date:

Saturday, September 22, 2012

  Actual Average Record
Temperature  
Mean Temperature 69 °F 68 °F  
Max Temperature 85 °F 83 °F 98 °F (2000)
Min Temperature 52 °F 53 °F 43 °F (1999)
Degree Days  
Heating Degree Days 0 2  
Month to date heating degree days 22 16  
Since 1 July heating degree days 22 17  
Cooling Degree Days 4 5  
Month to date cooling degree days 161 175  
Year to date cooling degree days 1875 1424  
Growing Degree Days 18 (Base 50)    
Moisture  
Dew Point 40 °F    
Average Humidity 45    
Maximum Humidity 66    
Minimum Humidity 23    
Precipitation  
Precipitation 0.00 in 0.05 in 1.05 in (2004)
Month to date precipitation 0.51 1.33  
Year to date precipitation 9.53 16.10  
Snow  
Snow 0.00 in - - ()
Month to date snowfall 0.0  
Since 1 July snowfall 0.0  
Since 1 September snowfall 0.0  
Snow Depth 0.00 in    
Sea Level Pressure  
Sea Level Pressure 30.05 in    
Wind  
Wind Speed 10 mph (ENE)    
Max Wind Speed 15 mph    
Max Gust Speed 20 mph    
Visibility 10 miles    
Events      
T = Trace of Precipitation, MM = Missing Value Source: NWS Daily Summary

Daily Weather History Graph

Daily Weather History Graph

Search for Another Location

Airport or City:

Trip Planner

Search our weather history database for the weather conditions in past years. The results will help you decide how hot, cold, wet, or windy it might be!

Date:

Astronomy

Sep. 22, 2012 Rise Set
Actual Time 7:34 AM CDT 7:42 PM CDT
Civil Twilight 7:08 AM CDT 8:07 PM CDT
Nautical Twilight 6:38 AM CDT 8:37 PM CDT
Astronomical Twilight 6:07 AM CDT 9:08 PM CDT
Moon 2:44 PM CDT (9/22) No Moon Set
Length of Visible Light 12h 59m
Length of Day
12h 07m
Waxing Crescent, 49% of the Moon is Illuminated
Sep 22
Waxing Crescent
Sep 22
First Quarter
Sep 29
Full
Oct 8
Last Quarter
Oct 15
New

Hourly Weather History & Observations

Time (CDT) Temp. Dew Point Humidity Pressure Visibility Wind Dir Wind Speed Gust Speed Precip Events Conditions
12:53 AM 64.0 °F 37.9 °F 38% 29.96 in 10.0 mi Calm Calm - N/A   Clear
1:53 AM 63.0 °F 37.9 °F 40% 29.97 in 10.0 mi Calm Calm - N/A   Clear
2:53 AM 57.0 °F 39.9 °F 53% 29.99 in 10.0 mi Calm Calm - N/A   Clear
3:53 AM 53.1 °F 42.1 °F 66% 30.00 in 10.0 mi SW 5.8 mph - N/A   Clear
4:53 AM 55.9 °F 39.9 °F 55% 29.99 in 10.0 mi NNE 3.5 mph - N/A   Clear
5:53 AM 55.0 °F 39.0 °F 55% 30.01 in 10.0 mi WNW 8.1 mph - N/A   Clear
6:53 AM 55.0 °F 39.0 °F 55% 30.04 in 10.0 mi NNE 4.6 mph - N/A   Clear
7:53 AM 53.1 °F 37.9 °F 57% 30.07 in 10.0 mi North 4.6 mph - N/A   Clear
8:53 AM 59.0 °F 39.9 °F 49% 30.09 in 10.0 mi North 3.5 mph - N/A   Clear
9:53 AM 66.9 °F 41.0 °F 39% 30.11 in 10.0 mi North 8.1 mph - N/A   Clear
10:53 AM 73.9 °F 39.9 °F 29% 30.09 in 10.0 mi NE 12.7 mph - N/A   Clear
11:53 AM 78.1 °F 41.0 °F 27% 30.10 in 10.0 mi NE 11.5 mph - N/A   Clear
12:53 PM 81.0 °F 42.1 °F 25% 30.08 in 10.0 mi ENE 11.5 mph 17.3 mph N/A   Clear
1:53 PM 82.0 °F 42.1 °F 24% 30.06 in 10.0 mi ENE 11.5 mph 23.0 mph N/A   Clear
2:53 PM 82.9 °F 42.1 °F 24% 30.06 in 10.0 mi ENE 10.4 mph 18.4 mph N/A   Clear
3:53 PM 84.0 °F 42.1 °F 23% 30.06 in 10.0 mi East 16.1 mph 23.0 mph N/A   Clear
4:53 PM 84.0 °F 42.1 °F 23% 30.04 in 10.0 mi ENE 11.5 mph - N/A   Clear
5:53 PM 82.0 °F 42.1 °F 24% 30.04 in 10.0 mi ENE 13.8 mph 21.9 mph N/A   Clear
6:53 PM 79.0 °F 41.0 °F 26% 30.04 in 10.0 mi East 16.1 mph 24.2 mph N/A   Clear
7:53 PM 75.0 °F 39.0 °F 27% 30.06 in 10.0 mi ENE 15.0 mph - N/A   Clear
8:53 PM 72.0 °F 37.9 °F 29% 30.07 in 10.0 mi East 12.7 mph 20.7 mph N/A   Clear
9:53 PM 68.0 °F 37.9 °F 33% 30.07 in 10.0 mi East 13.8 mph - N/A   Clear
10:53 PM 66.0 °F 37.9 °F 36% 30.08 in 10.0 mi ESE 12.7 mph - N/A   Clear
11:53 PM 64.0 °F 37.9 °F 38% 30.09 in 10.0 mi East 11.5 mph - N/A   Clear